Regional Weather Roundup
Issued by NWS

Home | Current Version | Previous Version | Text Only | Print | Product List | Glossary On
Versions: 1 2 3 4 5 6 7 8 9 10 11 12 13 14 15 16 17 18 19 20 21 22 23 24 25 26 27 28 29 30 31 32 33 34 35 36 37 38 39 40 41 42 43 44 45 46 47 48 49 50
000
ASUS43 KMKX 010559
RWRWI

WISCONSIN REGIONAL WEATHER ROUNDUP
NATIONAL WEATHER SERVICE MILWAUKEE/SULLIVAN WI
1200 AM CST SUN MAR 01 2015

NOTE: "FAIR" INDICATES FEW OR NO CLOUDS BELOW 12,000 FEET WITH NO
SIGNIFICANT WEATHER AND/OR OBSTRUCTIONS TO VISIBILITY.

WIZ001-002-006>008-014>016-023>028-010700-
NORTHWEST WISCONSIN

CITY           SKY/WX    TMP DP  RH WIND       PRES   REMARKS
SUPERIOR ARPT  PTCLDY    13   3  64 CALM      30.26F
ASHLAND        CLOUDY    14   0  53 S10       30.27F WCI   1
6HR MIN TEMP:  13; 6HR MAX TEMP:  18;

HAYWARD        CLOUDY    12   1  61 S12       30.26F WCI  -2
6HR MIN TEMP:  11; 6HR MAX TEMP:  14;

SIREN          PTCLDY    12   3  67 S8        30.28F WCI   1
CUMBERLAND     CLOUDY    10   1  67 S7        30.28F WCI   0
RICE LAKE      MOCLDY    12   1  63 S8        30.32S WCI   0
6HR MIN TEMP:  11; 6HR MAX TEMP:  15;

CHETEK         MOCLDY    12   1  61 S7        30.32F WCI   1
LADYSMITH      CLOUDY    12   0  58 S10       30.31F WCI  -1
6HR MIN TEMP:  10; 6HR MAX TEMP:  14;

EAU CLAIRE     NOT AVBL
MENOMONIE      MOCLDY    13   2  62 S6        30.35S WCI   4
NEW RICHMOND   CLOUDY    12   4  70 S10       30.31F WCI  -1
OSCEOLA        CLOUDY    13   6  72 S8        30.33F WCI   2
$$

WIZ003>005-009-010-017-018-010700-
NORTH CENTRAL WISCONSIN

CITY           SKY/WX    TMP DP  RH WIND       PRES   REMARKS
MANITOWISH WTR PTCLDY     9  -4  54 SW8       30.24F WCI  -3
ARBOR VITAE    FAIR      11  -3  52 SW7       30.25F WCI   1
WOODRUFF       FAIR      11  -3  52 SW7       30.25F WCI   1
RHINELANDER    PTCLDY    11  -3  53 SW12      30.27F WCI  -3
6HR MIN TEMP:   9; 6HR MAX TEMP:  13;

EAGLE RIVER    MOCLDY    10  -5  49 SW7       30.25F WCI   0
LAND O LAKES   CLOUDY    11  -3  52 SW5       30.24F WCI   3
PHILLIPS       MOCLDY    10  -2  58 S6        30.27S WCI   0
6HR MIN TEMP:   9; 6HR MAX TEMP:  14;

TOMAHAWK       PTCLDY    10  -2  57 CALM      30.30S
MEDFORD        CLEAR     10  -2  60 S7        30.31S WCI  -2
MERRILL        CLOUDY    13  -1  53 SW8       30.32S WCI   2
$$

WIZ029-030-035-036-043>047-010700-
CENTRAL WISCONSIN

CITY           SKY/WX    TMP DP  RH WIND       PRES   REMARKS
WAUSAU         MOCLDY    12  -1  56 SW9       30.33F WCI   0
6HR MIN TEMP:  12; 6HR MAX TEMP:  15;

MOSINEE        MOCLDY    12   1  62 SW10      30.35S WCI  -1
MARSHFIELD     CLOUDY    12   0  58 S9        30.34F WCI   0
6HR MIN TEMP:  12; 6HR MAX TEMP:  16;

STEVENS POINT  CLOUDY    12   1  63 S8        30.37F WCI   0
WAUPACA        CLOUDY    17   2  52 S10       30.41F WCI   4
WAUTOMA        NOT AVBL
WISC RAPIDS    CLOUDY    13  -1  54 SW7       30.39F WCI   3
6HR MIN TEMP:  13; 6HR MAX TEMP:  15;

CAMP DOUGLAS   NOT AVBL
$$

WIZ011>013-019>022-031-037>040-048>050-010700-
NORTHEAST WISCONSIN

CITY           SKY/WX    TMP DP  RH WIND       PRES   REMARKS
ANTIGO         CLOUDY    11   0  62 SW10      30.30F WCI  -3
SHAWANO        CLOUDY    16   3  55 SW5       30.39F WCI   9
OCONTO         CLOUDY    15   2  57 S6        30.41F WCI   6
STURGEON BAY   CLOUDY    16   1  53 SW10      30.41F WCI   3
6HR MIN TEMP:  12; 6HR MAX TEMP:  18;

GREEN BAY      CLOUDY    15   4  61 SW12      30.41F WCI   2
6HR MIN TEMP:  13; 6HR MAX TEMP:  16;

MANITOWOC      NOT AVBL
APPLETON       CLOUDY    14   3  62 S12       30.40F WCI   0
CLINTONVILLE   CLOUDY    16   3  57 SW7       30.39F WCI   6
OSHKOSH        CLOUDY    14   3  61 S10       30.41F WCI   1
6HR MIN TEMP:  10; 6HR MAX TEMP:  15;

$$

WIZ032>034-041-042-053>061-010700-
SOUTHWEST WISCONSIN

CITY           SKY/WX    TMP DP  RH WIND       PRES   REMARKS
LA CROSSE      CLOUDY    14   1  56 S7        30.42S WCI   4
6HR MIN TEMP:  13; 6HR MAX TEMP:  18;

SPARTA         CLEAR     12   1  61 SW3       30.42S
VIROQUA        CLEAR      9   2  75 S6        30.37S WCI  -1
BOSCOBEL       CLOUDY     7   1  76 CALM      30.44F
6HR MIN TEMP:   7; 6HR MAX TEMP:  16;

PRAIRIE DU CHI CLOUDY    10   1  67 CALM      30.44F
PLATTEVILLE    PTCLDY     8   6  89 E6        30.41F WCI  -2
$$

WIZ056-057-062-063-064-067-068-010700-
SOUTH CENTRAL WISCONSIN

CITY           SKY/WX    TMP DP  RH WIND       PRES   REMARKS
REEDSBURG      CLOUDY    12   4  71 SW6       30.42R WCI   2
BARABOO/DELLS  CLOUDY    10   3  72 SW5       30.41S WCI   2
LONE ROCK      NOT AVBL
MINERAL POINT  FLURRIES  12   9  85 SE6       30.39F WCI   3
MADISON        LGT SNOW  14   9  80 S5        30.41F WCI   6
6HR MIN TEMP:  14; 6HR MAX TEMP:  16; 6HR PCP: TRACE;

MIDDLETON      CLOUDY    15  10  80 S6        30.42F WCI   6
WATERTOWN      CLOUDY    14  11  87 CALM      30.42F
MONROE         MOCLDY    12  10  92 S5        30.40F WCI   4
JANESVILLE     FLURRIES  16  12  86 CALM      30.42F
$$

WIZ051-052-058>065-066-070>072-010700-
SOUTHEAST WISCONSIN

CITY           SKY/WX    TMP DP  RH WIND       PRES   REMARKS
MILWAUKEE      LGT SNOW  17  11  77 S6        30.44F WCI   9
6HR MIN TEMP:  17; 6HR MAX TEMP:  19; 6HR PCP: TRACE;

WAUKESHA       PTCLDY    14   7  73 S3        30.44F
MILWAUKEE/TIMM FLURRIES  18  10  73 S6        30.46F WCI   9
RACINE         FLURRIES  18  11  74 SW5       30.46F WCI  11
6HR MIN TEMP:  17; 6HR MAX TEMP:  20; 6HR PCP: TRACE;

BURLINGTON     FLURRIES  15  10  82 CALM      30.44F
KENOSHA        FLURRIES  16  12  84 CALM      30.44F
6HR MIN TEMP:  16; 6HR MAX TEMP:  20; 6HR PCP: TRACE;

FOND DU LAC    FLURRIES  15   6  67 SW12      30.41F WCI   2
6HR MIN TEMP:  14; 6HR MAX TEMP:  16; 6HR PCP: TRACE;

SHEBOYGAN      CLOUDY    16   7  67 SW10      30.43F WCI   4
6HR MIN TEMP:  14; 6HR MAX TEMP:  17;

WEST BEND      CLOUDY    16   7  67 S6        30.42F WCI   7
JUNEAU         LGT SNOW  13   9  83 S5        30.43F WCI   6
$$

LSZ147-162-010700-
LAKE SUPERIOR

STATION/POSITION TIME  TEMP    WIND        PRES    WAVE
                       AIR SEA DIR/SP/G            HT/PER
                 (UTC) (F)     (DEG/KT/KT) (MB)    (FT/S)
DEVILS ISLAND    0500   16     210/ 11/ 16 1026.3F
PORT WING        0500   15     190/ 12/ 18 1025.1F
SAXON HARBOR     0500   16     210/  8/ 16 1026.1S
$$

LMZ867-665-643>646-010700-
LAKE MICHIGAN

STATION/POSITION TIME  TEMP    WIND        PRES    WAVE
                       AIR SEA DIR/SP/G            HT/PER
                 (UTC) (F)     (DEG/KT/KT) (MB)    (FT/S)
NORTHPORT PIER   0502   14     210/  2/  7 1029.8F
SISTER BAY       0543   16     210/ 11/ 13   N/A
KEWAUNEE LAKESHO 0500   16     220/  7/  9 1029.7F
SHEBOYGAN LAKESH 0500   19     210/ 13/ 15 1032.9F
PORT WASHINGTON  0500   19     230/  6/ 10 1032.2F
MILWAUKEE LAKESH 0500   18     220/ 10/ 12   N/A
KENOSHA   LAKESH 0500   18     210/  7/  8 1031.8F
$$

TC  - TEMPERATURE IN CELSIUS
VSB - VISIBILITY IN STATUTE MILES
WCI - WIND CHILL INDEX
HX  - HEAT INDEX



USA.gov is the U.S. government's official web portal to all federal, state and local government web resources and services.